Location: Chefe Valiua
(16.5342°S, 37.2214°E)
Time: 17:30:37
(UTC+00:00)

Daily predictions for brighter satellites

Satellite Brightness Start Highest point End
(mag) Time Altitude Azimuth Time Altitude Azimuth Time Altitude Azimuth
ATLAS 3B R/B 3.5 16:20:15 10° N 16:26:44 33° ENE 16:33:16 10° SE
Cosmos 1943 3.4 16:28:52 10° N 16:34:15 49° ENE 16:39:39 10° SSE
Cosmos 1825 Rocket 3.5 16:34:36 10° S 16:38:56 69° E 16:43:13 10° N
Cosmos 2278 Rocket 3.0 16:34:55 10° SSW 16:40:26 54° WNW 16:45:55 10° N
CZ-2C R/B 3.7 16:35:24 10° N 16:40:50 53° W 16:46:18 10° SSW
CZ-2C R/B 3.0 16:36:18 10° S 16:41:07 83° W 16:46:03 10° NNW
Helios 1A Rocket 3.4 16:40:00 10° SSE 16:43:51 39° E 16:47:41 10° N
GPS 2-04 Rocket1 4.4 16:42:05 10° SSW 16:44:31 18° SSE 16:46:57 10° ESE
NATO 3D Rocket 4.2 16:41:52 10° W 16:46:16 39° NNW 16:51:03 11° NE
Cosmos 2150 Rocket 4.3 16:41:35 10° S 16:46:38 49° ESE 16:51:36 10° NNE
H-2A R/B 1.9 16:45:22 10° SSE 16:50:16 61° ENE 16:55:06 10° N
ARIANE 5 R/B 4.2 16:46:45 10° NW 16:50:49 25° NNE 17:01:15 13° ENE
BREEZE-M DEB (TANK) 2.1 16:47:34 10° SW 16:51:45 78° SE 16:53:26 16° NE
CZ-3A R/B 3.5 16:48:01 10° WSW 16:54:58 74° NNW 17:05:52 15° ENE
OAO 3 Rocket 3.9 16:50:32 10° WSW 16:55:20 49° NW 16:59:40 12° NE
Cosmos 1943 Rocket 3.5 16:51:24 10° SSE 16:55:22 20° ESE 16:58:07 14° ENE
CSL-04 Rocket 4.0 16:51:49 10° SSE 16:56:47 40° E 17:01:43 10° N
Centaur D-1A AC-31 2.9 16:54:43 10° SW 16:57:31 20° S 16:59:58 10° ESE
Cosmos 44 Rocket 3.4 16:53:56 10° SSW 16:58:32 72° WNW 17:03:12 10° NNE
Cosmos 1953 Rocket 3.5 16:54:45 10° S 16:59:16 78° E 17:03:41 10° N
Cosmos 1655 Rocket 4.1 16:55:51 10° S 17:02:09 62° E 17:08:21 10° NNE
ERBS 4.0 17:00:11 10° NW 17:03:15 36° WSW 17:06:24 10° SSE
Cosmos 2266 Rocket 4.2 16:58:41 10° S 17:04:56 51° E 17:11:06 10° NNE
Aureole 3 Rocket 4.1 17:03:27 10° NNE 17:07:47 39° E 17:13:42 10° SSE
Cosmos 2298 Rocket 4.1 17:04:28 10° SSW 17:09:47 80° W 17:15:05 10° N
Cosmos 2297 3.9 17:04:55 10° S 17:10:25 53° ESE 17:14:30 18° NE
Cosmos 1408 3.3 17:07:35 10° SSE 17:10:57 33° E 17:12:13 26° ENE
Cosmos-2242 4.4 17:12:02 20° E 17:12:02 20° E 17:15:10 10° SE
Cosmos 1812 Rocket 3.8 17:08:28 10° NNE 17:12:37 47° E 17:16:48 10° SSE
HJ-1C 3.5 17:10:01 10° S 17:13:20 74° WSW 17:16:36 10° NNW
Cosmos 1892 2.6 17:10:26 10° S 17:14:14 64° E 17:16:54 18° NNE
SL-08 RB Rocket 3.8 17:10:22 10° SSE 17:14:55 52° E 17:19:24 10° N
GPS 2-17 Rocket1 3.4 17:17:52 10° WSW 17:22:23 56° S 17:24:53 24° ESE
Cosmos 2058 3.2 17:23:23 10° S 17:27:28 47° E 17:28:34 37° NE
USA 186 2.1 17:26:15 10° SSE 17:29:02 46° ESE 17:29:02 46° ESE
GPS 2-18 Rocket1 3.6 17:27:44 10° W 17:31:37 58° S 17:33:24 29° ESE
Cosmos 1076 Rocket 4.5 17:28:14 10° SSE 17:31:48 29° ESE 17:31:48 29° ESE
Lacrosse 5 rocket 2.6 17:28:09 10° S 17:32:14 31° SE 17:33:00 29° ESE
CZ-2C R/B 3.7 17:29:59 24° NNE 17:32:53 82° ESE 17:37:40 10° S
ARGOS 3.6 17:31:56 10° S 17:37:16 61° WSW 17:42:31 10° NNW
Cosmos 1125 Rocket 3.9 17:33:06 10° SSW 17:38:15 62° WNW 17:42:03 18° N
CZ-4 R/B 4.4 17:35:44 10° SSW 17:38:36 18° WSW 17:41:28 10° WNW
Cosmos 158 Rocket 4.1 17:42:17 37° NNE 17:43:59 51° ENE 17:49:09 10° SSE
Cosmos 1553 Rocket 4.0 17:42:31 27° NNE 17:45:58 58° E 17:52:03 10° SSE
MOS 1-B Rocket 4.3 17:53:12 31° NNE 17:56:52 86° ESE 18:04:49 10° SSW
Intelsat 5-2 Rocket 4.0 17:48:33 10° WSW 17:59:59 59° S 18:01:17 44° ESE
OBJECT-B 3.5 17:57:23 10° SSE 17:57:41 12° SSE 17:57:41 12° SSE
Atlas Centaur 2 3.7 18:00:56 10° SSW 18:02:33 12° SSE 18:03:05 12° SSE
S3M 3.9 18:06:44 59° E 18:06:54 59° E 18:13:01 10° SSE
ATLAS 3B R/B 4.5 18:10:42 10° WNW 18:17:16 33° WSW 18:23:52 10° S
Delta 202 4.3 18:10:05 10° WNW 18:20:17 70° NNE 18:21:14 64° NE
Cosmos 2369 Rocket 2.1 18:14:54 10° SSW 18:20:19 77° SSE 18:20:19 77° SSE
CZ-3B R/B 3.9 18:18:21 10° WSW 18:22:47 41° S 18:30:35 17° ESE
Ariane Rocket 3.2 18:20:01 10° S 18:24:43 67° SW 18:24:43 67° SW
Cosmos 1825 4.3 18:23:47 10° SW 18:26:28 24° W 18:26:28 24° W
Cosmos 1943 Rocket 3.5 18:34:11 10° SW 18:38:56 30° WNW 18:39:41 29° WNW
Aurora 2 Rocket 4.4 18:38:10 10° WSW 18:41:39 29° SSW 18:41:39 29° SSW
Intelsat 5-3 Rocket 4.4 18:41:05 10° WSW 18:46:20 31° SW 18:46:20 31° SW
